QPF
0.01 0.01 0.02 0.02 0.02 0.02 0.02 0.02 0.02 0.01 0.02 0.03 0.05 0.06 0.07 0.04 0.04 0.03 0.04 0.03 0.03 0.04 0.04 0.05 0.04 0.03 0.03 0.03 0.02 0.02 0.02 0.02 0.03 0.02 0.02 0.02 0.02 0.02 0.02 0.02 0.02 0.03 0.04 0.02
0.01 0.01 0.01 0.01 0.01 0.01 0.02 0.02 0.01 0.01 0.01 0.02 0.05 0.09 0.09 0.10 0.15 0.08 0.06 0.07 0.04 0.03 0.02 0.03 0.03 0.03 0.02 0.02 0.02 0.03 0.02 0.02 0.03 0.03 0.02 0.02 0.02 0.02 0.01 0.01 0.02 0.04 0.04 0.02
0.01 0.01 0.01 0.01 0.01 0.02 0.01 0.02 0.01 0.01 0.01 0.02 0.03 0.05 0.09 0.15 0.17 0.07 0.03 0.03 0.03 0.02 0.02 0.02 0.02 0.02 0.04 0.04 0.04 0.06 0.03 0.03 0.03 0.03 0.02 0.03 0.02 0.02 0.01 0.01 0.01 0.02 0.04 0.04
0.02 0.01 0.01 0.01 0.01 0.01 0.01 0.00 0.01 0.01 0.02 0.03 0.03 0.06 0.06 0.06 0.06 0.04 0.04 0.03 0.02 0.03 0.02 0.03 0.03 0.03 0.07 0.06 0.02 0.03 0.04 0.03 0.03 0.03 0.03 0.03 0.02 0.02 0.02 0.01 0.01 0.02 0.04 0.03
0.01 0.01 0.01 0.00 0.01 0.01 0.00 0.00 0.00 0.01 0.02 0.04 0.07 0.06 0.06 0.05 0.05 0.05 0.05 0.04 0.03 0.02 0.02 0.03 0.03 0.02 0.02 0.02 0.02 0.02 0.03 0.03 0.03 0.02 0.02 0.02 0.03 0.02 0.02 0.02 0.02 0.02 0.03 0.02
0.00 0.00 0.00 0.00 0.00 0.00 0.00 0.01 0.01 0.01 0.03 0.05 0.08 0.05 0.07 0.06 0.06 0.05 0.03 0.03 0.04 0.03 0.02 0.02 0.03 0.02 0.02 0.02 0.02 0.01 0.03 0.04 0.03 0.01 0.02 0.01 0.02 0.02 0.02 0.03 0.03 0.02 0.02 0.03
0.00 0.00 0.00 0.00 0.00 0.01 0.00 0.00 0.01 0.02 0.04 0.04 0.03 0.03 0.05 0.05 0.04 0.03 0.03 0.04 0.03 0.03 0.02 0.01 0.02 0.02 0.01 0.02 0.01 0.01 0.03 0.02 0.01 0.01 0.01 0.01 0.01 0.01 0.02 0.03 0.03 0.02 0.02 0.03
0.01 0.00 0.00 0.00 0.00 0.01 0.01 0.01 0.02 0.03 0.02 0.03 0.03 0.04 0.06 0.06 0.06 0.03 0.04 0.04 0.03 0.01 0.01 0.01 0.01 0.01 0.02 0.02 0.03 0.03 0.03 0.03 0.02 0.01 0.01 0.01 0.01 0.02 0.03 0.04 0.03 0.02 0.03 0.04
0.01 0.00 0.00 0.00 0.00 0.01 0.01 0.01 0.01 0.01 0.01 0.02 0.03 0.06 0.07 0.06 0.03 0.03 0.04 0.04 0.03 0.01 0.01 0.01 0.01 0.01 0.03 0.04 0.11 0.09 0.02 0.02 0.02 0.01 0.01 0.01 0.03 0.03 0.04 0.03 0.03 0.03 0.04 0.05
0.00 0.00 0.00 0.00 0.00 0.00 0.01 0.01 0.03 0.03 0.02 0.04 0.03 0.05 0.07 0.06 0.04 0.03 0.03 0.04 0.05 0.04 0.02 0.01 0.01 0.01 0.01 0.02 0.03 0.02 0.02 0.02 0.03 0.03 0.02 0.03 0.04 0.04 0.04 0.04 0.03 0.04 0.04 0.05
0.00 0.01 0.00 0.00 0.00 0.00 0.00 0.01 0.03 0.04 0.02 0.02 0.02 0.02 0.03 0.03 0.02 0.02 0.02 0.02 0.03 0.03 0.05 0.05 0.04 0.02 0.02 0.01 0.01 0.01 0.02 0.03 0.03 0.03 0.06 0.08 0.08 0.07 0.07 0.05 0.04 0.03 0.03 0.04
0.00 0.00 0.00 0.00 0.00 0.00 0.01 0.01 0.03 0.06 0.02 0.01 0.01 0.01 0.01 0.01 0.01 0.01 0.02 0.02 0.02 0.02 0.07 0.13 0.09 0.03 0.02 0.02 0.02 0.02 0.02 0.02 0.02 0.03 0.04 0.06 0.07 0.07 0.07 0.05 0.04 0.03 0.02 0.04
0.00 0.00 0.00 0.00 0.00 0.01 0.01 0.01 0.02 0.03 0.02 0.02 0.02 0.01 0.01 0.01 0.02 0.03 0.03 0.03 0.03 0.07 0.16 0.15 0.05 0.01 0.02 0.02 0.02 0.01 0.01 0.01 0.01 0.01 0.02 0.03 0.04 0.04 0.03 0.02 0.02 0.02 0.02 0.02
0.00 0.00 0.00 0.00 0.00 0.01 0.01 0.00 0.01 0.01 0.03 0.02 0.02 0.02 0.01 0.02 0.03 0.02 0.02 0.02 0.02 0.02 0.04 0.10 0.12 0.03 0.01 0.01 0.01 0.01 0.01 0.01 0.01 0.01 0.01 0.01 0.02 0.01 0.01 0.01 0.00 0.00 0.01 0.01
0.00 0.00 0.00 0.00 0.00 0.00 0.00 0.00 0.00 0.01 0.01 0.01 0.02 0.02 0.02 0.03 0.03 0.02 0.02 0.02 0.02 0.02 0.02 0.03 0.03 0.02 0.01 0.01 0.01 0.01 0.01 0.01 0.01 0.01 0.01 0.01 0.02 0.02 0.02 0.01 0.01 0.01 0.00 0.00
0.00 0.00 0.00 0.00 0.00 0.00 0.00 0.00 0.00 0.00 0.01 0.01 0.02 0.02 0.02 0.03 0.03 0.01 0.01 0.02 0.03 0.03 0.02 0.02 0.02 0.01 0.02 0.02 0.01 0.01 0.01 0.01 0.01 0.01 0.02 0.02 0.03 0.03 0.02 0.01 0.00 0.00 0.00 0.00
0.00 0.00 0.00 0.00 0.00 0.00 0.00 0.00 0.00 0.00 0.01 0.01 0.01 0.03 0.03 0.02 0.02 0.01 0.02 0.01 0.02 0.02 0.02 0.01 0.02 0.02 0.02 0.02 0.02 0.02 0.02 0.01 0.02 0.02 0.02 0.02 0.01 0.01 0.00 0.00 0.01 0.01 0.01 0.01
0.00 0.00 0.01 0.01 0.01 0.01 0.01 0.01 0.01 0.01 0.01 0.01 0.01 0.02 0.02 0.01 0.01 0.01 0.01 0.02 0.02 0.02 0.02 0.02 0.03 0.03 0.03 0.03 0.03 0.02 0.02 0.02 0.02 0.03 0.03 0.02 0.01 0.01 0.01 0.01 0.01 0.01 0.01 0.01
0.00 0.00 0.01 0.02 0.02 0.01 0.02 0.04 0.04 0.01 0.01 0.01 0.01 0.01 0.01 0.01 0.02 0.02 0.02 0.03 0.03 0.03 0.04 0.03 0.02 0.03 0.02 0.02 0.02 0.02 0.02 0.02 0.02 0.02 0.01 0.01 0.01 0.01 0.01 0.01 0.01 0.01 0.01 0.01
0.00 0.00 0.00 0.01 0.03 0.03 0.03 0.07 0.04 0.01 0.01 0.01 0.00 0.01 0.01 0.01 0.01 0.02 0.03 0.04 0.03 0.04 0.04 0.02 0.02 0.02 0.02 0.02 0.02 0.03 0.02 0.02 0.01 0.01 0.02 0.02 0.02 0.02 0.02 0.02 0.02 0.02 0.02 0.01
0.00 0.01 0.01 0.01 0.02 0.04 0.04 0.02 0.01 0.01 0.01 0.01 0.01 0.01 0.01 0.01 0.02 0.02 0.02 0.03 0.02 0.04 0.04 0.04 0.03 0.03 0.02 0.01 0.02 0.02 0.02 0.02 0.03 0.04 0.03 0.03 0.03 0.04 0.03 0.03 0.03 0.02 0.02 0.01
0.01 0.01 0.01 0.01 0.02 0.03 0.03 0.02 0.01 0.01 0.00 0.01 0.01 0.01 0.01 0.01 0.01 0.01 0.02 0.03 0.02 0.02 0.01 0.03 0.05 0.04 0.03 0.02 0.02 0.02 0.02 0.03 0.04 0.04 0.04 0.04 0.04 0.04 0.04 0.03 0.03 0.02 0.01 0.01
0.02 0.02 0.02 0.03 0.03 0.02 0.01 0.01 0.02 0.01 0.01 0.01 0.01 0.01 0.01 0.01 0.01 0.01 0.02 0.03 0.02 0.01 0.01 0.01 0.03 0.05 0.04 0.03 0.03 0.03 0.04 0.03 0.03 0.03 0.03 0.04 0.04 0.04 0.03 0.03 0.03 0.02 0.01 0.01
0.03 0.03 0.03 0.03 0.02 0.01 0.01 0.02 0.02 0.02 0.02 0.01 0.01 0.01 0.01 0.01 0.01 0.01 0.01 0.01 0.01 0.02 0.02 0.02 0.03 0.03 0.04 0.05 0.04 0.04 0.04 0.04 0.03 0.03 0.02 0.02 0.02 0.02 0.01 0.02 0.01 0.01 0.01 0.01
0.02 0.03 0.04 0.05 0.04 0.03 0.03 0.05 0.05 0.04 0.04 0.02 0.01 0.01 0.01 0.01 0.01 0.01 0.01 0.01 0.02 0.02 0.03 0.03 0.04 0.04 0.04 0.04 0.04 0.04 0.05 0.04 0.03 0.03 0.03 0.02 0.02 0.01 0.01 0.01 0.01 0.01 0.01 0.01
0.03 0.03 0.04 0.06 0.07 0.07 0.05 0.06 0.05 0.03 0.03 0.01 0.01 0.01 0.01 0.01 0.01 0.03 0.03 0.02 0.02 0.02 0.03 0.03 0.03 0.04 0.04 0.04 0.04 0.04 0.05 0.04 0.03 0.03 0.04 0.03 0.02 0.01 0.01 0.01 0.01 0.01 0.01 0.01
MSLP
1008.55 1009.41 1010.02 1010.36 1010.47 1010.43 1010.31 1010.19 1010.13 1010.13 1010.19 1010.25 1010.29 1010.28 1010.21 1010.09 1009.97 1009.88 1009.87 1009.96 1010.14 1010.38 1010.64 1010.89 1011.08 1011.20 1011.27 1011.30 1011.35 1011.47 1011.67 1011.99 1012.38 1012.83 1013.28 1013.68 1013.98 1014.17 1014.24 1014.22 1014.16 1014.10 1014.09 1014.15
1009.27 1009.89 1010.21 1010.28 1010.18 1010.02 1009.88 1009.83 1009.91 1010.08 1010.30 1010.49 1010.60 1010.58 1010.44 1010.20 1009.95 1009.74 1009.64 1009.68 1009.85 1010.13 1010.46 1010.77 1011.01 1011.16 1011.23 1011.25 1011.28 1011.37 1011.58 1011.90 1012.34 1012.85 1013.36 1013.81 1014.15 1014.35 1014.41 1014.35 1014.25 1014.14 1014.09 1014.13
1009.80 1010.14 1010.20 1010.04 1009.79 1009.57 1009.47 1009.57 1009.84 1010.23 1010.63 1010.95 1011.11 1011.06 1010.81 1010.41 1009.98 1009.60 1009.36 1009.32 1009.47 1009.77 1010.15 1010.53 1010.84 1011.05 1011.14 1011.16 1011.18 1011.25 1011.44 1011.76 1012.22 1012.77 1013.33 1013.83 1014.22 1014.44 1014.51 1014.45 1014.32 1014.19 1014.11 1014.13
1010.09 1010.18 1010.01 1009.69 1009.37 1009.18 1009.22 1009.52 1010.04 1010.66 1011.26 1011.71 1011.89 1011.77 1011.37 1010.77 1010.12 1009.53 1009.12 1008.96 1009.05 1009.36 1009.79 1010.25 1010.64 1010.91 1011.05 1011.10 1011.11 1011.17 1011.34 1011.65 1012.12 1012.68 1013.28 1013.83 1014.26 1014.53 1014.63 1014.59 1014.47 1014.33 1014.24 1014.24
1010.14 1010.03 1009.70 1009.30 1009.00 1008.93 1009.18 1009.73 1010.53 1011.40 1012.19 1012.74 1012.92 1012.70 1012.13 1011.30 1010.39 1009.57 1008.96 1008.67 1008.69 1008.99 1009.47 1010.00 1010.48 1010.83 1011.04 1011.12 1011.14 1011.19 1011.34 1011.64 1012.09 1012.66 1013.28 1013.87 1014.35 1014.67 1014.83 1014.83 1014.73 1014.60 1014.51 1014.49
1010.00 1009.72 1009.31 1008.91 1008.71 1008.83 1009.33 1010.18 1011.25 1012.36 1013.32 1013.93 1014.09 1013.76 1013.00 1011.94 1010.78 1009.73 1008.93 1008.50 1008.45 1008.74 1009.25 1009.85 1010.41 1010.85 1011.12 1011.25 1011.29 1011.34 1011.47 1011.75 1012.18 1012.74 1013.36 1013.98 1014.50 1014.88 1015.09 1015.15 1015.10 1014.99 1014.90 1014.86
1009.69 1009.32 1008.88 1008.56 1008.51 1008.86 1009.62 1010.74 1012.06 1013.37 1014.44 1015.10 1015.21 1014.77 1013.84 1012.58 1011.21 1009.96 1009.01 1008.46 1008.35 1008.62 1009.16 1009.82 1010.46 1010.97 1011.31 1011.48 1011.55 1011.60 1011.72 1011.96 1012.36 1012.90 1013.51 1014.14 1014.70 1015.13 1015.40 1015.51 1015.50 1015.43 1015.35 1015.30
1009.28 1008.86 1008.46 1008.25 1008.39 1008.95 1009.94 1011.28 1012.78 1014.22 1015.36 1016.02 1016.08 1015.53 1014.47 1013.07 1011.57 1010.20 1009.15 1008.54 1008.39 1008.65 1009.22 1009.92 1010.61 1011.18 1011.57 1011.78 1011.88 1011.92 1012.02 1012.24 1012.60 1013.11 1013.70 1014.32 1014.89 1015.36 1015.67 1015.84 1015.88 1015.85 1015.78 1015.72
1008.81 1008.41 1008.09 1008.02 1008.32 1009.06 1010.21 1011.68 1013.27 1014.74 1015.88 1016.49 1016.49 1015.88 1014.76 1013.30 1011.76 1010.37 1009.30 1008.68 1008.53 1008.80 1009.38 1010.10 1010.82 1011.42 1011.84 1012.08 1012.19 1012.24 1012.33 1012.52 1012.85 1013.31 1013.87 1014.47 1015.04 1015.52 1015.87 1016.08 1016.17 1016.18 1016.13 1016.08
1008.35 1008.02 1007.81 1007.87 1008.30 1009.15 1010.37 1011.86 1013.41 1014.82 1015.88 1016.41 1016.35 1015.71 1014.59 1013.18 1011.70 1010.38 1009.39 1008.83 1008.73 1009.02 1009.60 1010.32 1011.04 1011.64 1012.07 1012.32 1012.44 1012.50 1012.58 1012.76 1013.06 1013.49 1014.01 1014.58 1015.14 1015.61 1015.98 1016.22 1016.34 1016.39 1016.38 1016.35
1007.97 1007.75 1007.67 1007.85 1008.36 1009.22 1010.41 1011.79 1013.20 1014.44 1015.34 1015.75 1015.63 1015.00 1013.96 1012.68 1011.36 1010.22 1009.38 1008.95 1008.92 1009.25 1009.84 1010.53 1011.22 1011.79 1012.20 1012.46 1012.59 1012.66 1012.76 1012.93 1013.22 1013.63 1014.12 1014.66 1015.19 1015.65 1016.01 1016.27 1016.42 1016.50 1016.53 1016.54
1007.72 1007.65 1007.71 1007.97 1008.50 1009.31 1010.36 1011.54 1012.70 1013.69 1014.37 1014.63 1014.45 1013.85 1012.94 1011.86 1010.79 1009.88 1009.26 1009.00 1009.08 1009.45 1010.03 1010.68 1011.31 1011.84 1012.23 1012.48 1012.62 1012.73 1012.86 1013.06 1013.36 1013.76 1014.24 1014.75 1015.24 1015.68 1016.03 1016.29 1016.46 1016.57 1016.64 1016.69
1007.65 1007.75 1007.93 1008.26 1008.76 1009.45 1010.28 1011.17 1012.02 1012.70 1013.11 1013.21 1012.96 1012.42 1011.67 1010.83 1010.04 1009.41 1009.04 1008.96 1009.16 1009.57 1010.13 1010.74 1011.31 1011.78 1012.14 1012.38 1012.56 1012.72 1012.90 1013.16 1013.50 1013.92 1014.39 1014.88 1015.34 1015.76 1016.09 1016.35 1016.54 1016.67 1016.78 1016.87
1007.79 1008.04 1008.33 1008.69 1009.14 1009.66 1010.23 1010.79 1011.28 1011.61 1011.75 1011.66 1011.36 1010.87 1010.29 1009.69 1009.19 1008.85 1008.73 1008.83 1009.14 1009.59 1010.13 1010.68 1011.18 1011.60 1011.93 1012.19 1012.42 1012.64 1012.91 1013.25 1013.65 1014.10 1014.59 1015.07 1015.52 1015.91 1016.23 1016.48 1016.68 1016.84 1016.98 1017.11
1008.13 1008.51 1008.88 1009.24 1009.59 1009.92 1010.22 1010.44 1010.57 1010.57 1010.43 1010.16 1009.79 1009.36 1008.93 1008.57 1008.32 1008.25 1008.34 1008.60 1009.00 1009.47 1009.98 1010.47 1010.92 1011.30 1011.62 1011.91 1012.20 1012.52 1012.89 1013.32 1013.80 1014.31 1014.83 1015.32 1015.76 1016.13 1016.44 1016.69 1016.89 1017.08 1017.25 1017.42
1008.64 1009.11 1009.52 1009.84 1010.08 1010.21 1010.23 1010.13 1009.93 1009.62 1009.24 1008.81 1008.38 1007.99 1007.68 1007.51 1007.48 1007.61 1007.88 1008.26 1008.72 1009.20 1009.68 1010.13 1010.52 1010.88 1011.21 1011.55 1011.92 1012.34 1012.82 1013.35 1013.92 1014.49 1015.04 1015.55 1015.99 1016.36 1016.67 1016.92 1017.15 1017.35 1017.56 1017.77
1009.30 1009.78 1010.16 1010.41 1010.51 1010.45 1010.22 1009.85 1009.36 1008.80 1008.21 1007.65 1007.17 1006.80 1006.59 1006.55 1006.68 1006.96 1007.35 1007.81 1008.30 1008.78 1009.23 1009.64 1010.01 1010.36 1010.73 1011.12 1011.58 1012.10 1012.68 1013.31 1013.96 1014.59 1015.18 1015.70 1016.16 1016.53 1016.85 1017.13 1017.38 1017.62 1017.87 1018.12
1010.01 1010.43 1010.73 1010.87 1010.82 1010.57 1010.13 1009.54 1008.84 1008.08 1007.34 1006.69 1006.16 1005.81 1005.66 1005.71 1005.94 1006.30 1006.75 1007.25 1007.75 1008.22 1008.65 1009.04 1009.40 1009.77 1010.18 1010.64 1011.18 1011.79 1012.47 1013.18 1013.89 1014.56 1015.19 1015.73 1016.20 1016.60 1016.94 1017.24 1017.54 1017.82 1018.12 1018.42
1010.71 1011.00 1011.15 1011.14 1010.93 1010.51 1009.91 1009.15 1008.30 1007.42 1006.59 1005.88 1005.34 1005.00 1004.88 1004.97 1005.24 1005.64 1006.11 1006.62 1007.11 1007.57 1007.98 1008.37 1008.75 1009.16 1009.62 1010.15 1010.76 1011.45 1012.19 1012.96 1013.71 1014.41 1015.06 1015.62 1016.11 1016.53 1016.91 1017.26 1017.60 1017.95 1018.30 1018.65
1011.31 1011.42 1011.39 1011.20 1010.83 1010.26 1009.53 1008.66 1007.73 1006.79 1005.92 1005.19 1004.65 1004.32 1004.22 1004.33 1004.61 1005.00 1005.47 1005.96 1006.44 1006.89 1007.30 1007.71 1008.12 1008.58 1009.09 1009.69 1010.37 1011.11 1011.90 1012.69 1013.46 1014.18 1014.83 1015.41 1015.92 1016.37 1016.79 1017.20 1017.61 1018.02 1018.44 1018.84
1011.76 1011.65 1011.42 1011.05 1010.52 1009.83 1009.01 1008.09 1007.12 1006.17 1005.32 1004.60 1004.08 1003.77 1003.68 1003.78 1004.05 1004.43 1004.87 1005.34 1005.80 1006.25 1006.68 1007.12 1007.58 1008.09 1008.67 1009.33 1010.06 1010.84 1011.65 1012.45 1013.22 1013.94 1014.59 1015.18 1015.70 1016.20 1016.67 1017.13 1017.61 1018.08 1018.56 1019.01
1012.02 1011.70 1011.27 1010.73 1010.06 1009.28 1008.40 1007.45 1006.50 1005.59 1004.78 1004.11 1003.63 1003.34 1003.25 1003.35 1003.59 1003.94 1004.35 1004.80 1005.25 1005.71 1006.17 1006.65 1007.17 1007.75 1008.39 1009.09 1009.86 1010.66 1011.48 1012.28 1013.05 1013.75 1014.41 1015.00 1015.55 1016.08 1016.60 1017.13 1017.66 1018.19 1018.72 1019.21
1012.08 1011.56 1010.97 1010.28 1009.51 1008.66 1007.76 1006.83 1005.92 1005.07 1004.33 1003.72 1003.29 1003.03 1002.95 1003.03 1003.25 1003.56 1003.94 1004.37 1004.82 1005.30 1005.80 1006.33 1006.91 1007.54 1008.24 1008.99 1009.79 1010.60 1011.42 1012.22 1012.97 1013.68 1014.33 1014.94 1015.52 1016.09 1016.66 1017.23 1017.81 1018.39 1018.94 1019.46
1011.95 1011.29 1010.57 1009.78 1008.94 1008.07 1007.18 1006.29 1005.44 1004.67 1004.00 1003.47 1003.08 1002.85 1002.77 1002.84 1003.02 1003.30 1003.66 1004.07 1004.52 1005.02 1005.55 1006.13 1006.76 1007.45 1008.19 1008.98 1009.80 1010.63 1011.45 1012.24 1013.00 1013.70 1014.37 1015.01 1015.62 1016.23 1016.84 1017.45 1018.06 1018.66 1019.23 1019.75
1011.67 1010.93 1010.14 1009.30 1008.44 1007.57 1006.71 1005.88 1005.11 1004.42 1003.82 1003.34 1003.00 1002.79 1002.71 1002.75 1002.91 1003.16 1003.48 1003.87 1004.32 1004.83 1005.39 1006.00 1006.67 1007.40 1008.18 1008.99 1009.83 1010.67 1011.50 1012.29 1013.06 1013.78 1014.48 1015.15 1015.80 1016.45 1017.10 1017.74 1018.38 1018.98 1019.55 1020.06
1011.31 1010.54 1009.73 1008.89 1008.05 1007.22 1006.42 1005.66 1004.96 1004.33 1003.80 1003.37 1003.04 1002.84 1002.74 1002.76 1002.88 1003.09 1003.38 1003.74 1004.18 1004.68 1005.25 1005.88 1006.58 1007.32 1008.12 1008.94 1009.78 1010.63 1011.47 1012.28 1013.07 1013.82 1014.56 1015.28 1015.98 1016.67 1017.36 1018.03 1018.67 1019.27 1019.82 1020.30
Thickness
5829 5811 5801 5809 5816 5816 5811 5804 5799 5810 5828 5817 5808 5806 5812 5820 5819 5814 5812 5812 5811 5810 5813 5814 5815 5814 5811 5808 5806 5804 5802 5801 5799 5795 5792 5789 5787 5787 5787 5787 5787 5786 5785 5783
5807 5802 5820 5829 5828 5823 5815 5802 5801 5813 5828 5817 5803 5801 5811 5817 5816 5816 5814 5812 5811 5809 5809 5811 5812 5811 5809 5807 5805 5802 5801 5799 5798 5795 5792 5790 5788 5786 5785 5785 5785 5784 5783 5782
5798 5813 5831 5826 5820 5815 5811 5805 5805 5805 5815 5814 5802 5790 5800 5811 5817 5818 5818 5817 5814 5812 5809 5809 5809 5809 5808 5805 5803 5803 5800 5798 5797 5795 5792 5789 5785 5783 5781 5780 5780 5781 5781 5780
5807 5825 5826 5819 5816 5817 5803 5823 5821 5813 5796 5781 5791 5764 5788 5800 5804 5810 5812 5813 5812 5814 5812 5810 5808 5807 5806 5806 5805 5802 5800 5797 5795 5794 5789 5785 5779 5775 5776 5777 5777 5778 5778 5777
5805 5821 5819 5814 5822 5827 5819 5832 5823 5814 5796 5781 5784 5767 5778 5796 5794 5803 5809 5812 5814 5815 5814 5811 5810 5808 5807 5806 5804 5801 5798 5796 5794 5792 5788 5783 5779 5776 5775 5775 5773 5773 5774 5774
5816 5832 5831 5829 5839 5838 5834 5822 5811 5799 5782 5762 5775 5767 5769 5787 5799 5806 5812 5816 5816 5816 5815 5812 5810 5808 5805 5804 5802 5799 5795 5793 5792 5789 5786 5782 5778 5775 5772 5770 5769 5768 5769 5770
5801 5819 5835 5841 5827 5829 5823 5790 5763 5758 5749 5753 5776 5771 5777 5805 5815 5817 5815 5815 5816 5815 5812 5809 5806 5804 5802 5800 5799 5796 5792 5789 5788 5786 5783 5781 5778 5774 5771 5769 5767 5765 5765 5764
5778 5786 5821 5834 5825 5813 5812 5792 5760 5746 5742 5751 5770 5767 5789 5815 5822 5825 5822 5820 5817 5813 5811 5809 5806 5804 5801 5799 5796 5793 5789 5786 5785 5783 5781 5779 5776 5773 5770 5768 5766 5764 5763 5762
5779 5787 5825 5837 5841 5828 5807 5796 5794 5767 5758 5747 5756 5774 5794 5813 5813 5816 5816 5816 5813 5811 5810 5808 5805 5803 5800 5797 5794 5792 5787 5784 5782 5780 5778 5775 5773 5771 5768 5766 5764 5762 5761 5760
5797 5787 5811 5830 5836 5831 5823 5808 5782 5763 5745 5738 5752 5762 5770 5791 5799 5805 5808 5809 5809 5809 5808 5805 5803 5800 5798 5796 5793 5790 5786 5782 5779 5777 5775 5773 5769 5767 5765 5763 5761 5759 5757 5756
5803 5785 5795 5809 5808 5806 5809 5801 5785 5765 5758 5742 5736 5757 5802 5802 5806 5804 5806 5809 5808 5806 5805 5803 5800 5798 5795 5792 5789 5786 5782 5779 5776 5773 5770 5767 5764 5762 5760 5758 5756 5755 5753 5751
5802 5782 5773 5792 5817 5826 5813 5801 5785 5764 5759 5756 5747 5764 5817 5813 5812 5811 5808 5806 5805 5805 5803 5801 5797 5794 5791 5787 5784 5781 5778 5775 5772 5769 5765 5762 5759 5757 5755 5753 5752 5751 5748 5746
5800 5775 5758 5767 5785 5803 5801 5802 5795 5779 5764 5753 5748 5768 5811 5811 5809 5809 5806 5803 5802 5800 5798 5795 5792 5789 5786 5783 5780 5777 5775 5771 5768 5765 5761 5757 5754 5752 5750 5748 5747 5745 5743 5741
5806 5772 5760 5754 5765 5783 5788 5794 5795 5778 5757 5755 5763 5774 5791 5798 5800 5800 5800 5799 5798 5795 5793 5789 5785 5783 5781 5779 5776 5773 5770 5767 5764 5760 5756 5752 5749 5747 5745 5743 5742 5739 5738 5735
5793 5769 5774 5778 5788 5793 5790 5790 5792 5783 5776 5767 5774 5779 5788 5797 5799 5799 5798 5795 5791 5787 5786 5784 5781 5777 5775 5772 5770 5768 5765 5762 5759 5754 5750 5747 5745 5743 5740 5738 5735 5733 5731 5729
5778 5767 5769 5770 5785 5786 5782 5788 5790 5789 5788 5783 5782 5780 5796 5799 5798 5795 5793 5789 5784 5782 5782 5780 5777 5774 5770 5768 5765 5762 5759 5757 5754 5749 5746 5743 5740 5737 5735 5732 5729 5727 5724 5722
5764 5758 5749 5746 5767 5770 5760 5776 5781 5781 5785 5783 5774 5780 5791 5789 5789 5788 5787 5786 5783 5780 5778 5775 5773 5771 5768 5765 5761 5756 5754 5751 5747 5744 5741 5738 5735 5732 5729 5727 5723 5720 5717 5715
5758 5747 5735 5735 5746 5734 5758 5787 5789 5782 5780 5785 5784 5785 5788 5788 5786 5786 5785 5782 5780 5777 5773 5770 5768 5765 5763 5761 5757 5754 5749 5745 5741 5738 5735 5732 5729 5726 5723 5720 5717 5714 5711 5708
5762 5746 5730 5721 5721 5733 5760 5778 5778 5770 5764 5779 5779 5778 5780 5782 5777 5772 5778 5779 5776 5773 5770 5767 5765 5762 5758 5755 5752 5747 5742 5739 5735 5731 5728 5726 5724 5720 5717 5713 5711 5708 5705 5701
5752 5744 5727 5717 5716 5715 5743 5772 5784 5772 5748 5770 5773 5770 5771 5770 5752 5755 5769 5771 5769 5767 5765 5762 5759 5756 5751 5748 5745 5740 5734 5731 5727 5725 5723 5720 5717 5714 5710 5707 5704 5701 5698 5695
5724 5721 5715 5710 5709 5720 5749 5769 5773 5740 5739 5763 5767 5765 5763 5758 5756 5760 5764 5763 5762 5760 5758 5755 5751 5747 5743 5741 5737 5730 5726 5723 5722 5720 5717 5714 5711 5708 5704 5701 5697 5693 5690 5687
5709 5705 5704 5702 5700 5710 5749 5754 5744 5741 5753 5757 5759 5759 5757 5754 5755 5755 5754 5753 5752 5750 5748 5746 5741 5737 5735 5732 5728 5722 5718 5717 5715 5712 5709 5705 5703 5701 5698 5693 5689 5685 5681 5677
5706 5707 5706 5707 5709 5728 5741 5743 5747 5749 5746 5747 5748 5751 5751 5747 5744 5744 5742 5742 5741 5741 5738 5736 5732 5727 5724 5722 5720 5714 5711 5709 5706 5703 5699 5696 5694 5691 5688 5684 5680 5676 5673 5668
5704 5711 5706 5704 5712 5721 5729 5735 5740 5743 5741 5743 5744 5743 5742 5737 5735 5733 5732 5731 5729 5728 5727 5724 5721 5716 5713 5712 5711 5707 5704 5701 5698 5694 5691 5687 5684 5681 5679 5676 5673 5668 5664 5660
5693 5697 5694 5695 5703 5710 5718 5723 5729 5732 5734 5734 5734 5734 5732 5729 5725 5724 5722 5720 5719 5718 5715 5713 5709 5705 5703 5702 5700 5698 5695 5693 5688 5684 5682 5678 5675 5672 5669 5667 5664 5662 5659 5655
5687 5687 5684 5685 5695 5697 5702 5713 5719 5720 5720 5720 5720 5719 5721 5720 5717 5715 5712 5711 5709 5707 5704 5701 5699 5696 5693 5692 5690 5689 5687 5684 5680 5676 5673 5670 5667 5664 5660 5657 5654 5654 5651 5649